Weather History for Lakeville, MN

Change the Weather History Date:

Saturday, December 7, 2013

  Actual Average Record
Temperature  
Mean Temperature -6 °F -  
Max Temperature 0 °F 28 °F 45 °F (1991)
Min Temperature -13 °F 12 °F -25 °F (1972)
Degree Days  
Heating Degree Days 72    
Moisture  
Dew Point -13 °F    
Average Humidity 76    
Maximum Humidity 85    
Minimum Humidity 60    
Precipitation  
Precipitation 0.00 in - - ()
Sea Level Pressure  
Sea Level Pressure 30.63 in    
Wind  
Wind Speed 4 mph (WSW)    
Max Wind Speed 9 mph    
Max Gust Speed -    
Visibility 10 miles    
Events      
Averages and records for this station are not official NWS values.
T = Trace of Precipitation, MM = Missing Value Source: NWS Daily Summary

Daily Weather History Graph

Daily Weather History Graph

Search for Another Location

Airport:

Trip Planner

Search our weather history database for the weather conditions in past years. The results will help you decide how hot, cold, wet, or windy it might be!

Date:

Astronomy

Dec. 07, 2013 Rise Set
Actual Time 7:36 AM CST 4:32 PM CST
Civil Twilight 7:03 AM CST 5:05 PM CST
Nautical Twilight 6:26 AM CST 5:42 PM CST
Astronomical Twilight 5:51 AM CST 6:17 PM CST
Moon 11:13 AM CST (12/7) 10:24 PM CST (12/7)
Length of Visible Light 10h 02m
Length of Day
8h 56m
Waxing Crescent, 29% of the Moon is Illuminated
Dec 7
Waxing Crescent
Dec 9
First Quarter
Dec 17
Full
Dec 25
Last Quarter
Jan 1
New

Hourly Weather History & Observations

Time (CST) Temp. Windchill Dew Point Humidity Pressure Visibility Wind Dir Wind Speed Gust Speed Precip Events Conditions
12:07 AM -9.4 °F -22.7 °F -14.8 °F 77% 30.62 in 10.0 mi West 5.8 mph - N/A   Clear
12:27 AM -9.4 °F -18.6 °F -14.8 °F 77% 30.63 in 10.0 mi WSW 3.5 mph - N/A   Clear
12:48 AM -9.4 °F -22.7 °F -14.8 °F 77% 30.63 in 10.0 mi West 5.8 mph - N/A   Clear
1:07 AM -11.2 °F -24.8 °F -14.8 °F 84% 30.62 in 10.0 mi West 5.8 mph - N/A   Clear
1:27 AM -9.4 °F -20.9 °F -14.8 °F 77% 30.63 in 10.0 mi West 4.6 mph - N/A   Clear
1:48 AM -9.4 °F -20.9 °F -14.8 °F 77% 30.63 in 10.0 mi West 4.6 mph - N/A   Clear
2:07 AM -9.4 °F -22.7 °F -14.8 °F 77% 30.63 in 10.0 mi West 5.8 mph - N/A   Clear
2:28 AM -11.2 °F -24.8 °F -14.8 °F 84% 30.64 in 10.0 mi West 5.8 mph - N/A   Clear
2:47 AM -11.2 °F -23.0 °F -14.8 °F 84% 30.64 in 10.0 mi West 4.6 mph - N/A   Clear
3:07 AM -11.2 °F -24.8 °F -14.8 °F 84% 30.65 in 10.0 mi WSW 5.8 mph - N/A   Clear
3:28 AM -11.2 °F -23.0 °F -16.6 °F 77% 30.65 in 10.0 mi WSW 4.6 mph - N/A   Clear
3:47 AM -11.2 °F -20.6 °F -16.6 °F 77% 30.65 in 10.0 mi SW 3.5 mph - N/A   Clear
4:07 AM -11.2 °F -20.6 °F -16.6 °F 77% 30.65 in 10.0 mi West 3.5 mph - N/A   Clear
4:28 AM -11.2 °F -23.0 °F -16.6 °F 77% 30.66 in 10.0 mi West 4.6 mph - N/A   Clear
4:47 AM -11.2 °F -20.6 °F -16.6 °F 77% 30.66 in 10.0 mi WSW 3.5 mph - N/A   Clear
5:07 AM -11.2 °F -24.8 °F -16.6 °F 77% 30.67 in 10.0 mi WSW 5.8 mph - N/A   Clear
5:28 AM -13.0 °F -25.1 °F -16.6 °F 84% 30.66 in 10.0 mi WSW 4.6 mph - N/A   Clear
5:47 AM -13.0 °F -25.1 °F -16.6 °F 84% 30.66 in 10.0 mi West 4.6 mph - N/A   Clear
6:08 AM -13.0 °F - -16.6 °F 84% 30.67 in 10.0 mi Calm Calm - N/A   Clear
6:28 AM -13.0 °F -22.7 °F -16.6 °F 84% 30.67 in 10.0 mi WSW 3.5 mph - N/A   Clear
6:47 AM -13.0 °F -27.0 °F -16.6 °F 84% 30.67 in 10.0 mi West 5.8 mph - N/A   Clear
7:08 AM -13.0 °F -25.1 °F -16.6 °F 84% 30.67 in 10.0 mi WSW 4.6 mph - N/A   Clear
7:28 AM -13.0 °F -22.7 °F -16.6 °F 84% 30.66 in 10.0 mi West 3.5 mph - N/A   Clear
7:47 AM -13.0 °F -25.1 °F -16.6 °F 84% 30.67 in 10.0 mi West 4.6 mph - N/A   Clear
8:07 AM -11.2 °F -23.0 °F -16.6 °F 77% 30.67 in 10.0 mi WSW 4.6 mph - N/A   Clear
8:28 AM -11.2 °F -24.8 °F -16.6 °F 77% 30.68 in 10.0 mi WSW 5.8 mph - N/A   Clear
8:47 AM -9.4 °F -18.6 °F -16.6 °F 71% 30.69 in 10.0 mi SW 3.5 mph - N/A   Clear
9:07 AM -9.4 °F -18.6 °F -14.8 °F 77% 30.69 in 10.0 mi SW 3.5 mph - N/A   Clear
9:28 AM -9.4 °F -18.6 °F -14.8 °F 77% 30.69 in 10.0 mi SW 3.5 mph - N/A   Clear
9:47 AM -7.6 °F - -14.8 °F 71% 30.70 in 10.0 mi Calm Calm - N/A   Clear
10:07 AM -7.6 °F -16.5 °F -13.0 °F 77% 30.70 in 10.0 mi SW 3.5 mph - N/A   Clear
10:28 AM -5.8 °F -18.4 °F -13.0 °F 71% 30.70 in 10.0 mi SW 5.8 mph - N/A   Clear
10:47 AM -5.8 °F -18.4 °F -13.0 °F 71% 30.69 in 10.0 mi SW 5.8 mph - N/A   Clear
11:08 AM -4.0 °F -12.4 °F -11.2 °F 71% 30.69 in 10.0 mi WSW 3.5 mph - N/A   Clear
11:27 AM -2.2 °F -12.5 °F -11.2 °F 66% 30.68 in 10.0 mi SW 4.6 mph - N/A   Clear
11:47 AM -2.2 °F -12.5 °F -11.2 °F 66% 30.68 in 10.0 mi WSW 4.6 mph - N/A   Clear
12:08 PM -2.2 °F -14.2 °F -11.2 °F 66% 30.67 in 10.0 mi WSW 5.8 mph - N/A   Clear
12:27 PM -2.2 °F -16.8 °F -11.2 °F 66% 30.66 in 10.0 mi WSW 8.1 mph - N/A   Clear
12:47 PM -2.2 °F -15.6 °F -11.2 °F 66% 30.66 in 10.0 mi WSW 6.9 mph - N/A   Clear
1:08 PM -0.4 °F -14.7 °F -11.2 °F 60% 30.65 in 10.0 mi West 8.1 mph - N/A   Clear
1:27 PM -0.4 °F -14.7 °F -11.2 °F 60% 30.65 in 10.0 mi West 8.1 mph - N/A   Clear
1:47 PM -0.4 °F -13.4 °F -9.4 °F 66% 30.64 in 10.0 mi West 6.9 mph - N/A   Clear
2:08 PM -0.4 °F -15.7 °F -9.4 °F 66% 30.64 in 10.0 mi West 9.2 mph - N/A   Clear
2:27 PM -0.4 °F -13.4 °F -9.4 °F 66% 30.64 in 10.0 mi West 6.9 mph - N/A   Clear
2:47 PM -0.4 °F -12.0 °F -9.4 °F 66% 30.64 in 10.0 mi West 5.8 mph - N/A   Clear
3:08 PM -0.4 °F -12.0 °F -9.4 °F 66% 30.63 in 10.0 mi West 5.8 mph - N/A   Clear
3:27 PM -0.4 °F -13.4 °F -9.4 °F 66% 30.62 in 10.0 mi West 6.9 mph - N/A   Clear
3:48 PM -2.2 °F -12.5 °F -11.2 °F 66% 30.62 in 10.0 mi WSW 4.6 mph - N/A   Clear
4:07 PM -2.2 °F - -9.4 °F 71% 30.62 in 10.0 mi Calm Calm - N/A   Clear
4:27 PM -2.2 °F - -9.4 °F 71% 30.62 in 10.0 mi Calm Calm - N/A   Clear
4:47 PM -4.0 °F - -11.2 °F 71% 30.61 in 10.0 mi Calm Calm - N/A   Clear
5:07 PM -4.0 °F - -9.4 °F 78% 30.60 in 10.0 mi Calm Calm - N/A   Clear
5:28 PM -5.8 °F - -11.2 °F 77% 30.60 in 10.0 mi Calm Calm - N/A   Clear
5:47 PM -5.8 °F - -11.2 °F 77% 30.59 in 10.0 mi Calm Calm - N/A   Clear
6:07 PM -7.6 °F - -11.2 °F 84% 30.59 in 10.0 mi Calm Calm - N/A   Clear
6:28 PM -5.8 °F -16.7 °F -11.2 °F 77% 30.58 in 10.0 mi NW 4.6 mph - N/A   Clear
6:47 PM -7.6 °F - -11.2 °F 84% 30.57 in 10.0 mi Calm Calm - N/A   Clear
7:07 PM -5.8 °F - -11.2 °F 77% 30.58 in 10.0 mi Calm Calm - N/A   Clear
7:28 PM -5.8 °F - -11.2 °F 77% 30.58 in 10.0 mi Calm Calm - N/A   Clear
7:47 PM -5.8 °F - -9.4 °F 84% 30.58 in 10.0 mi Calm Calm - N/A   Clear
8:07 PM -5.8 °F - -11.2 °F 77% 30.58 in 10.0 mi Calm Calm - N/A   Clear
8:28 PM -5.8 °F - -9.4 °F 84% 30.57 in 10.0 mi Calm Calm - N/A   Clear
8:47 PM -7.6 °F - -11.2 °F 84% 30.56 in 10.0 mi Calm Calm - N/A   Clear
9:07 PM -5.8 °F -14.5 °F -11.2 °F 77% 30.56 in 10.0 mi WNW 3.5 mph - N/A   Unknown
9:28 PM -5.8 °F - -9.4 °F 84% 30.56 in 10.0 mi Calm Calm - N/A   Clear
9:47 PM -5.8 °F - -9.4 °F 84% 30.56 in 10.0 mi Calm Calm - N/A   Unknown
10:07 PM -5.8 °F - -9.4 °F 84% 30.55 in 10.0 mi Calm Calm - N/A   Clear
10:28 PM -5.8 °F - -9.4 °F 84% 30.55 in 10.0 mi Calm Calm - N/A   Clear
10:47 PM -5.8 °F - -9.4 °F 84% 30.55 in 10.0 mi Calm Calm - N/A   Clear
11:07 PM -4.0 °F - -9.4 °F 78% 30.55 in 10.0 mi Calm Calm - N/A   Clear
11:28 PM -4.0 °F - -7.6 °F 85% 30.55 in 10.0 mi Calm Calm - N/A   Clear
11:47 PM -2.2 °F - -7.6 °F 78% 30.54 in 10.0 mi Calm Calm - N/A   Clear